Content
SEND FEEDBACK

Daily
Averages
Monthly
Summary
United States of America

WEIRTON, WEST VIRGINIA


Home > North America > United States > West Virginia
Elevation: 104 feet     Latitude: 40 24N     Longitude: 080 36W

WEATHER
 
SELECT A DAY
Number of Records: 197,929;   Date Range: 1/1/95 - 9/20/14
 
SHARE

PRINT THIS DATA

[ ← Previous Day ]
WEATHER ALMANAC - FEBRUARY 13, 2013
[ Next Day → ]
[ °C ]   °F
Weather ElementAverageHighLow
Temperature30.6 °F36 °F (10:51 am)24.1 °F (3:51 am)
Dewpoint26.1 °F30.9 °F (5:51 pm)19.9 °F (3:51 am)
Humidity83.9 %96 % (5:51 pm)64 % (1:51 pm)
Barometer29.79 in29.92 in (1:51 am)29.67 in (3:11 pm)
Wind Speed4.1 mph10.4 mph (6:51 pm)
Weather ElementAverage
Visibility5.1 mi
Wind DirectionSSW (202.1 °)

Weather ElementTotal
Precipitation0.26 in
Heating Degree Days35 (Base 65)
Averaged from 29 records on February 13, 2013
WEATHER CONDITIONS BREAKOUT
WIND DIRECTION BREAKOUT
WEATHER BY HOUR - FEBRUARY 13, 2013
[ °C ]   °F
Local TimeTemperatureDewpointHumidityBarometerVisibilityWind DirectionWind SpeedGust SpeedPrecipitationEventsConditions
1:51 AM27.0 °F21.0 °F78 %29.92 in10.0 miCalmClear
2:51 AM25.0 °F21.0 °F85 %29.91 in10.0 miCalmClear
3:51 AM24.1 °F19.9 °F84 %29.89 in10.0 miCalmClear
4:51 AM24.1 °F19.9 °F84 %29.88 in10.0 miCalmPartly Cloudy
6:51 AM25.0 °F21.9 °F88 %29.86 in6.0 miCalmMostly Cloudy
7:51 AM27.0 °F23.0 °F85 %29.84 in7.0 miCalmMostly Cloudy
8:51 AM28.0 °F24.1 °F85 %29.82 in7.0 miCalmOvercast
9:51 AM32.0 °F25.0 °F75 %29.81 in7.0 miSE (140°)3.5 mphMostly Cloudy
10:51 AM36.0 °F26.1 °F67 %29.80 in7.0 miNorth (350°)8.1 mphOvercast
11:51 AM34.0 °F25.0 °F70 %29.81 in7.0 miNorth (360°)5.8 mphOvercast
12:51 PM35.1 °F26.1 °F70 %29.76 in7.0 miNorth (350°)6.9 mphOvercast
1:51 PM36.0 °F25.0 °F64 %29.75 in8.0 miNNW (340°)3.5 mphOvercast
2:51 PM36.0 °F25.0 °F64 %29.73 in8.0 miNW (310°)3.5 mphOvercast
3:11 PM35.6 °F26.6 °F70 %29.67 in3.0 miNNW (340°)5.8 mph0.00 inSnowLight Snow
3:36 PM33.8 °F28.4 °F81 %29.67 in2.0 miCalm0.00 inSnowLight Snow
3:51 PM33.1 °F28.9 °F85 %29.74 in0.5 miCalm0.01 inSnowSnow
4:31 PM32.0 °F30.2 °F93 %29.68 in0.5 miWest (280°)5.8 mph0.04 inSnowSnow
4:51 PM32.0 °F30.0 °F92 %29.75 in0.5 miWNW (300°)6.9 mph0.06 inSnowSnow
5:27 PM32.0 °F30.2 °F93 %29.70 in0.5 miWNW (300°)6.9 mph0.03 inSnowSnow
5:51 PM32.0 °F30.9 °F96 %29.77 in0.5 miWNW (300°)8.1 mph0.06 inSnowSnow
6:34 PM32.0 °F30.2 °F93 %29.71 in2.0 miWNW (290°)6.9 mph0.02 inSnowLight Snow
6:51 PM32.0 °F30.0 °F92 %29.78 in2.0 miWNW (300°)10.4 mph0.02 inSnowLight Snow
7:14 PM32.0 °F30.2 °F93 %29.72 in3.0 miWest (270°)4.6 mph0.01 inSnowLight Snow
7:51 PM30.9 °F28.9 °F92 %29.81 in5.0 miWest (270°)5.8 mph0.01 inOvercast
8:35 PM30.2 °F28.4 °F93 %29.77 in5.0 miWest (280°)6.9 mphOvercast
8:51 PM28.9 °F27.0 °F92 %29.83 in5.0 miWest (270°)4.6 mphScattered Clouds
9:51 PM28.0 °F26.1 °F92 %29.85 in5.0 miWest (270°)5.8 mphScattered Clouds
10:51 PM28.0 °F25.0 °F88 %29.86 in4.0 miWest (260°)4.6 mphClear
11:51 PM26.1 °F23.0 °F88 %29.89 in4.0 miWest (280°)5.8 mphMostly Cloudy
Hourly data recorded from KPIT, located miles away from Weirton, West Virginia







STORIES FROM OUR PARTNERS